sat.trackr.live / text

‹ back to catalog

KUIPER-00131

NORAD 68573 · 2026-072A

PAYLOAD ACTIVE UNKNOWN

§ Identity

Operator
Country
US
Launch date
2026-04-04
Launch site
AFETR
Launch vehicle
Mass (kg)
RCS (m²)

External: N2YO · Heavens-Above · Gunter

§ Orbital elements

Epoch: 2026-09-20T02:29:58.431264Z

Period
97.30 min
Inclination
51.9011°
Eccentricity
0.0000839
Mean motion
14.79930679 rev/d
Perigee alt
629.0 km
Apogee alt
630.1 km
Semi-major
7,007.7 km
B*
2.8080e-4
RAAN
135.9298°
Arg perigee
107.3835°
Mean anomaly
252.7220°
Rev number
2,517

§ Raw data

KUIPER-001311 68573U 26072A   26263.10414851  .00001920  00000+0  28080-3 0  99912 68573  51.9011 135.9298 0000839 107.3835 252.7220 14.79930679 25172

JSON: /api/v1/satellites/68573 · /tle

For live sub-satellite position, see the globe view (requires WebGL).

§ Visibility from observer

Set your observer location to see the next 7 days of passes ≥ 10°. The values pass through the URL so the page stays shareable.

No JS? Fill the form by hand. The geolocation button needs JavaScript.